Stations météo

réclame
Mon MeteoGroup
Helgoland, Allemagne (10015): Température de l'air & dewpoint: 15.02.2019 15:00:00 - 21.02.2019 15:00:00 (CET)Helgoland, Allemagne (10015): Température de l'air 5cm: 15.02.2019 15:00:00 - 21.02.2019 15:00:00 (CET)Helgoland, Allemagne (10015): reduced air pressure: 15.02.2019 15:00:00 - 21.02.2019 15:00:00 (CET)Helgoland, Allemagne (10015): visibility: 15.02.2019 15:00:00 - 21.02.2019 15:00:00 (CET)Helgoland, Allemagne (10015): Ensoleillement: 15.02.2019 15:00:00 - 21.02.2019 15:00:00 (CET)Helgoland, Allemagne (10015): Quantités de précipitations: 15.02.2019 15:00:00 - 21.02.2019 15:00:00 (CET)
Date & Time tt [°C] td [°C] tt 5cm [°C] ppp [hPa] vv [km] sd [min] rr [mm]
21.02.2019 15:00:00 6,1 5,6 6,4 1022,7 2,0 0 0,0
21.02.2019 14:00:00 6,2 5,4 6,6 1022,7 6 0 0,0
21.02.2019 13:00:00 6,2 5,4 7,1 1022,2 4,6 0 0,0
21.02.2019 12:00:00 6,1 5,1 6,8 1022,2 4,2 0 0,0
21.02.2019 11:00:00 6,0 5,0 6,6 1021,9 5 11 0,0
21.02.2019 10:00:00 6,1 5,0 6,5 1021,7 7 19 0,0
21.02.2019 09:00:00 6,0 5,0 5,9 1021,4 5 0 0,0
21.02.2019 08:00:00 5,9 4,9 5,6 1020,8 5 0 0,0
21.02.2019 07:00:00 6,0 4,8 5,7 1020,7 7 0 0,0
21.02.2019 06:00:00 6,0 4,8 5,6 1020,4 6 0 0,0
21.02.2019 05:00:00 5,9 4,5 4,9 1020,5 8 0 0,0
21.02.2019 04:00:00 6,2 4,4 5,7 1020,5 10 0 0,1
21.02.2019 03:00:00 6,2 4,2 5,5 1020,8 10 0 0,4
21.02.2019 02:00:00 6,5 3,7 5,8 1020,6 15 0 0,0
21.02.2019 01:00:00 6,6 3,7 6,0 1020,5 20 0 0,0
21.02.2019 00:00:00 6,4 4,0 6,2 1020,2 15 0 0,0
20.02.2019 23:00:00 6,4 4,3 6,1 1020,5 14 0 0,0
20.02.2019 22:00:00 6,6 4,4 6,4 1020,6 13 0 0,0
20.02.2019 21:00:00 6,6 4,7 6,5 1020,5 13 0 0,0
20.02.2019 20:00:00 6,6 4,9 6,5 1020,2 13 0 0,0
20.02.2019 19:00:00 6,6 4,8 6,5 1020,1 14 0 0,0
20.02.2019 18:00:00 6,7 5,0 6,6 1019,8 13 0 0,0
20.02.2019 17:00:00 6,6 4,8 6,7 1019,7 12 0 0,0
20.02.2019 16:00:00 6,7 4,7 7,0 1019,6 13 0 0,0
20.02.2019 15:00:00 6,6 4,8 7,4 1019,6 11 4 0,0
20.02.2019 14:00:00 6,5 4,8 7,8 1019,6 8 0 0,0
20.02.2019 13:00:00 6,6 4,9 8,8 1019,6 8 6 0,0
20.02.2019 12:00:00 6,0 5,1 6,7 1019,7 6 0 0,0
20.02.2019 11:00:00 5,8 4,9 6,7 1019,0 6 0 0,0
20.02.2019 10:00:00 5,7 4,8 6,0 1018,4 8 0 0,0
20.02.2019 09:00:00 5,8 4,7 5,7 1017,6 9 0 0,0
20.02.2019 08:00:00 5,8 4,7 5,5 1017,0 9 0 0,0
20.02.2019 07:00:00 5,7 4,7 5,2 1016,9 8 0 0,0
20.02.2019 06:00:00 5,6 4,6 5,2 1016,9 8 0 0,0
20.02.2019 05:00:00 5,5 4,5 5,0 1016,9 9 0 0,0
20.02.2019 04:00:00 5,6 4,6 5,2 1016,7 9 0 0,0
20.02.2019 03:00:00 5,7 4,6 5,4 1016,8 10 0 0,0
20.02.2019 02:00:00 5,8 4,7 5,5 1016,7 10 0 0,0
20.02.2019 01:00:00 5,7 4,5 5,5 1016,6 12 0 0,0
20.02.2019 00:00:00 5,8 4,5 5,6 1016,4 10 0 0,0
19.02.2019 23:00:00 5,9 4,4 5,2 1016,2 11 0 0,0
19.02.2019 22:00:00 6,0 4,4 5,1 1015,9 12 0 0,0
19.02.2019 21:00:00 5,9 4,6 4,9 1015,6 10 0 0,0
19.02.2019 20:00:00 5,9 4,6 5,4 1015,3 10 0 0,0
19.02.2019 19:00:00 6,0 4,7 5,4 1014,9 11 0 0,0
19.02.2019 18:00:00 6,1 4,8 5,8 1014,5 10 0 0,0
19.02.2019 17:00:00 6,3 4,7 6,4 1013,9 11 0 0,0
19.02.2019 16:00:00 6,5 4,9 6,7 1013,5 11 2 0,0
19.02.2019 15:00:00 6,2 4,7 6,7 1013,2 9 18 0,0
19.02.2019 14:00:00 6,2 4,7 6,8 1012,8 10 20 0,0
19.02.2019 13:00:00 6,3 4,7 6,7 1012,7 11 0 0,0
19.02.2019 12:00:00 6,1 4,7 6,2 1012,5 9 0 0,0
19.02.2019 11:00:00 5,8 4,5 5,7 1012,2 10 0 0,0
19.02.2019 10:00:00 5,8 4,5 5,7 1011,8 7 0 0,0
19.02.2019 09:00:00 5,7 4,5 5,4 1011,4 9 5 0,0
19.02.2019 08:00:00 5,5 4,5 4,7 1011,2 9 0 0,0
19.02.2019 07:00:00 5,6 4,6 4,6 1010,8 13 0 0,0
19.02.2019 06:00:00 5,7 4,7 4,7 1010,8 15 0 0,0
19.02.2019 05:00:00 5,7 5,0 5,2 1011,0 9 0 0,2
19.02.2019 04:00:00 5,8 5,3 5,5 1011,1 4,7 0 0,8
19.02.2019 03:00:00 5,6 5,2 5,5 1011,4 3,6 0 1,0
19.02.2019 02:00:00 5,3 5,0 5,3 1011,9 3,7 0 0,0
19.02.2019 01:00:00 5,3 4,6 5,1 1011,8 3,2 0 0,0
19.02.2019 00:00:00 6,7 5,4 6,1 1012,0 5 0 0,0
18.02.2019 23:00:00 6,8 5,5 6,4 1012,4 5 0 0,0
18.02.2019 22:00:00 6,8 5,1 6,8 1013,0 8 0 0,0
18.02.2019 21:00:00 6,6 4,5 6,6 1013,3 11 0 0,0
18.02.2019 20:00:00 7,4 4,1 6,9 1013,5 18 0 0,0
18.02.2019 19:00:00 7,0 3,9 4,5 1013,7 19 0 0,0
18.02.2019 18:00:00 7,2 3,9 6,5 1014,0 19 0 0,0
18.02.2019 17:00:00 7,8 3,8 7,0 1014,3 20 56 0,0
18.02.2019 16:00:00 7,5 4,6 8,4 1014,6 15 60 0,0
18.02.2019 15:00:00 7,2 4,3 8,9 1014,9 15 60 0,0
18.02.2019 14:00:00 7,3 4,1 9,9 1015,5 18 60 0,0
18.02.2019 13:00:00 7,3 3,7 11,0 1016,3 17 60 0,0
18.02.2019 12:00:00 6,9 3,3 9,9 1016,9 17 60 0,0
18.02.2019 11:00:00 6,8 3,0 8,8 1017,0 17 60 0,0
18.02.2019 10:00:00 6,3 3,0 7,1 1017,1 14 60 0,0
18.02.2019 09:00:00 5,9 3,2 5,2 1017,4 12 27 0,0
18.02.2019 08:00:00 5,7 3,6 4,3 1017,4 10 0 0,0
18.02.2019 07:00:00 5,8 3,8 4,4 1017,2 10 0 0,0
18.02.2019 06:00:00 6,0 3,5 4,3 1017,2 12 0 0,0
18.02.2019 05:00:00 6,1 3,3 4,5 1017,3 12 0 0,0
18.02.2019 04:00:00 6,7 3,0 5,2 1017,4 15 0 0,0
18.02.2019 03:00:00 6,4 3,2 4,7 1017,7 12 0 0,0
18.02.2019 02:00:00 6,9 3,1 5,1 1017,7 14 0 0,0
18.02.2019 01:00:00 7,2 3,2 5,6 1017,6 14 0 0,0
18.02.2019 00:00:00 7,1 3,4 5,5 1017,4 13 0 0,0
17.02.2019 23:00:00 7,3 3,5 5,6 1017,8 14 0 0,0
17.02.2019 22:00:00 7,5 3,8 6,0 1018,0 13 0 0,0
17.02.2019 21:00:00 7,3 3,8 5,8 1018,0 13 0 0,0
17.02.2019 20:00:00 7,9 3,9 6,4 1018,1 14 0 0,0
17.02.2019 19:00:00 7,7 3,8 6,2 1018,3 14 0 0,0
17.02.2019 18:00:00 7,9 4,1 6,3 1018,4 13 0 0,0
17.02.2019 17:00:00 7,6 4,0 6,6 1018,6 13 11 0,0
17.02.2019 16:00:00 8,0 3,6 8,0 1019,0 15 60 0,0
17.02.2019 15:00:00 7,5 3,8 9,3 1019,5 11 60 0,0
17.02.2019 14:00:00 6,7 3,5 9,6 1020,1 8 60 0,0
17.02.2019 13:00:00 6,6 3,5 9,3 1020,8 8 60 0,0
17.02.2019 12:00:00 6,3 3,4 8,6 1021,6 8 60 0,0
17.02.2019 11:00:00 6,1 3,9 7,9 1021,9 5 60 0,0
17.02.2019 10:00:00 6,1 4,4 6,8 1021,9 3,9 57 0,0
17.02.2019 09:00:00 5,8 4,4 5,1 1022,1 3,6 16 0,0
17.02.2019 08:00:00 6,1 4,8 5,0 1021,9 3,9 0 0,0
17.02.2019 07:00:00 6,3 5,1 6,3 1021,8 3,4 0 0,0
17.02.2019 06:00:00 6,5 5,3 6,5 1022,2 3,8 0 0,0
17.02.2019 05:00:00 6,4 5,2 6,4 1022,5 3,0 0 0,0
17.02.2019 04:00:00 6,5 5,1 6,5 1022,6 3,7 0 0,0
17.02.2019 03:00:00 6,5 5,3 6,5 1022,9 3,4 0 0,0
17.02.2019 02:00:00 6,4 5,1 6,4 1022,9 3,8 0 0,0
17.02.2019 01:00:00 6,5 5,1 6,6 1023,0 4,5 0 0,0
17.02.2019 00:00:00 6,9 5,2 6,8 1023,1 6 0 0,0
16.02.2019 23:00:00 7,0 5,2 6,9 1023,0 6 0 0,0
16.02.2019 22:00:00 6,9 5,0 6,8 1022,8 6 0 0,0
16.02.2019 21:00:00 6,6 5,0 6,3 1022,9 6 0 0,0
16.02.2019 20:00:00 6,5 5,1 6,1 1022,8 5 0 0,0
16.02.2019 19:00:00 6,6 5,1 6,6 1022,7 6 0 0,0
16.02.2019 18:00:00 6,6 5,0 6,6 1022,4 7 0 0,0
16.02.2019 17:00:00 7,0 5,0 6,9 1022,2 8 0 0,0
16.02.2019 16:00:00 7,0 4,5 7,4 1022,5 9 60 0,0
16.02.2019 15:00:00 7,1 4,2 7,6 1022,6 10 60 0,0
16.02.2019 14:00:00 7,5 3,8 9,1 1022,5 12 60 0,0
16.02.2019 13:00:00 6,7 3,4 7,8 1022,3 14 60 0,0
16.02.2019 12:00:00 6,3 2,9 8,0 1022,4 14 60 0,0
16.02.2019 11:00:00 5,9 2,7 7,1 1022,4 15 60 0,0
16.02.2019 10:00:00 5,9 2,6 6,4 1022,6 19 60 0,0
16.02.2019 09:00:00 5,6 2,3 4,9 1022,1 19 26 0,0
16.02.2019 08:00:00 5,5 2,1 4,0 1022,2 22 0 0,0
16.02.2019 07:00:00 5,4 2,2 3,8 1022,0 24 0 0,0
16.02.2019 06:00:00 5,8 2,2 4,1 1022,2 27 0 0,0
16.02.2019 05:00:00 5,9 2,1 4,3 1022,2 28 0 0,0
16.02.2019 04:00:00 6,0 2,5 4,2 1023,0 26 0 0,0
16.02.2019 03:00:00 6,1 2,6 4,3 1023,6 26 0 0,0
16.02.2019 02:00:00 6,5 2,7 4,9 1024,2 28 0 0,0
16.02.2019 01:00:00 6,6 2,9 4,8 1024,7 31 0 0,0
16.02.2019 00:00:00 7,3 3,0 5,2 1025,0 32 0 0,0
15.02.2019 23:00:00 6,6 3,1 4,7 1025,4 34 0 0,0
15.02.2019 22:00:00 6,8 3,2 4,8 1026,2 37 0 0,0
15.02.2019 21:00:00 6,8 3,4 4,4 1026,9 38 0 0,0
15.02.2019 20:00:00 7,7 3,0 5,3 1027,4 42 0 0,0
15.02.2019 19:00:00 7,3 3,3 5,2 1027,9 44 0 0,0
15.02.2019 18:00:00 7,5 3,0 5,7 1028,0 43 7 0,0
15.02.2019 17:00:00 7,5 3,0 6,0 1028,2 29 60 0,0
15.02.2019 16:00:00 7,0 2,8 8,1 1029,2 30 60 0,0
15.02.2019 15:00:00 6,8 2,7 8,8 1029,9 33 60 0,0

tt = Température de l'air
td = dewpoint
tt 5cm = Température de l'air 5cm
ppp = reduced air pressure
vv = visibility
sd = Ensoleillement
rr = Quantités de précipitations

stations d'obs. à proximité